Location: Overspoor
(51.4747°N, 5.6641°E)
Time: 00:04:28
(UTC+02:00)

DUCHIFAT 1 - Pass Details

Date: 11 July 2022
Orbit: 580 x 596 km, 98.0° (Epoch: 08 August)

Event Time Altitude Azimuth Distance (km) Brightness Sun altitude
Rises 04:03:23 0° 17° (NNE) 2,852 ? -10.2°
Reaches altitude 10° 04:05:36 10° 22° (NNE) 1,946 ? -10.0°
Maximum altitude 04:09:45 54° 101° (E) 732 ? -9.7°
Drops below altitude 10° 04:13:52 10° 179° (S) 1,932 ? -9.3°
Enters shadow 04:14:25 - 180° (S) 2,155 ? -9.3°
